Location: Keraloret
(48.5182°N, 4.5718°W)
Time: 03:23:43
(UTC+00:00)

Daily predictions for brighter satellites

Satellite Brightness Start Highest point End
(mag) Time Altitude Azimuth Time Altitude Azimuth Time Altitude Azimuth
ALOS 2 2.9 00:04:05 49° SW 00:04:42 54° W 00:09:02 10° NNW
Gbstr 26 Del rocket 4.2 00:01:08 10° W 00:03:21 26° WSW 00:03:21 26° WSW
NOSS 2-1 (E) 3.1 00:06:21 68° NNW 00:06:21 68° NNW 00:09:43 10° NE
Geosat 4.0 00:05:21 41° SE 00:07:05 75° ENE 00:12:07 10° NNW
Cosmos 1174 4.4 00:05:09 10° NW 00:07:04 34° NW 00:07:04 34° NW
Cosmos 2360 Rocket 2.8 00:02:58 10° NW 00:08:15 42° WSW 00:09:32 36° SW
Nadezhda 2 Rocket 4.5 00:06:44 42° S 00:09:03 77° E 00:15:27 10° NNE
Cosmos 1862 Rocket 4.2 00:07:04 10° N 00:11:18 45° ENE 00:12:10 40° ESE
Meteor 1-25 Rocket 4.1 00:10:11 47° S 00:11:53 79° E 00:17:30 10° NNE
Cosmos 1666 4.4 00:12:13 22° E 00:12:18 22° E 00:15:20 10° NE
USA 229 DEB 4.0 00:08:17 10° NW 00:15:34 77° NE 00:21:07 21° SE
USA 229 4.0 00:08:23 10° NW 00:15:40 76° NE 00:21:16 20° SE
Resurs 1-4 Rocket 4.5 00:15:49 10° ENE 00:16:52 11° E 00:17:55 10° E
Cosmos 2322 3.7 00:11:30 10° NNW 00:17:13 74° WSW 00:18:54 47° S
SL-27 R/B 3.9 00:16:37 29° W 00:17:22 31° WNW 00:20:38 10° N
Cosmos 1707 Rocket 3.4 00:17:16 10° NNW 00:21:37 81° W 00:22:09 68° SSW
Cosmos 1110 Rocket 4.1 00:16:22 10° NNW 00:21:43 72° ENE 00:23:33 41° SE
Meteor 1-19 Rocket 4.1 00:17:11 10° NNW 00:22:57 88° ENE 00:24:41 47° SSE
COSMOS 2487 2.6 00:25:44 66° N 00:25:44 66° N 00:28:44 10° NNE
Cosmos 2084 3.8 00:27:37 39° W 00:28:51 57° NW 00:33:00 10° NE
Cosmos 1244 Rocket 4.4 00:26:47 42° SSW 00:29:02 84° W 00:35:16 10° N
USA 267 4.1 00:23:47 10° ENE 00:30:05 51° NNW 00:36:22 10° W
Cosmos 1331 Rocket 4.0 00:26:45 10° NNW 00:32:02 78° ENE 00:33:43 44° SE
Cosmos 2297 Rocket 3.6 00:31:41 22° ESE 00:32:56 24° ESE 00:37:20 10° NE
Cosmos 468 4.4 00:32:18 51° SSW 00:33:39 85° ESE 00:38:55 10° NNE
Cosmos 2237 Rocket 3.0 00:30:00 10° NNW 00:35:29 48° NE 00:39:17 19° ESE
NOSS 3-1 (A) 4.0 00:28:31 10° NW 00:35:57 89° SW 00:41:59 22° SE
Cosmos 2322 Rocket 4.0 00:33:06 10° WNW 00:36:18 16° W 00:37:23 15° WSW
BREEZE-M DEB (TANK) 3.8 00:29:42 10° WSW 00:38:38 50° SSE 00:42:09 10° E
SAR-Lupe-2 3.7 00:35:51 10° N 00:39:25 65° WNW 00:39:25 65° WNW
Cosmos 2285 Rocket 4.3 00:35:44 10° NNW 00:41:50 53° WSW 00:43:44 40° SSW
Cosmos 2227 Rocket 3.7 00:42:17 20° ESE 00:43:45 22° E 00:47:57 10° NE
EO 1 Del DPAF 3.9 00:42:23 10° NNE 00:45:57 42° E 00:45:57 42° E
Meteor 2-4 Rocket 3.8 00:45:51 10° NNW 00:51:51 88° E 00:54:04 41° SSE
PSLV R/B 3.8 00:48:57 10° NNE 00:53:45 79° WNW 00:54:53 52° SSW
Cosmos 1500 3.2 00:54:07 63° W 00:54:17 64° W 00:58:07 10° N
CZ-2D R/B 3.9 00:50:38 10° NE 00:54:47 22° E 00:57:06 17° SE
SL-16 R/B 3.9 00:53:54 10° NNW 00:58:53 30° NE 01:03:50 10° ESE
COSMOS 2428 3.0 00:53:36 10° NW 00:59:07 50° WSW 01:00:22 42° SSW
Cosmos 2219 Rocket 2.8 01:00:13 10° NW 01:05:19 37° WSW 01:06:11 35° SW
Cosmos 1048 Rocket 4.4 01:03:37 34° WSW 01:05:32 53° WNW 01:10:34 10° NNE
Meteor 1-5 Rocket 4.2 01:07:27 43° S 01:09:23 84° E 01:15:14 10° NNE
Thor Agena Rocket 4.0 01:06:54 10° N 01:11:47 51° WNW 01:13:34 35° WSW
Meteor 2-17 Rocket 4.4 01:11:21 40° S 01:13:42 87° E 01:19:47 10° N
Cosmos 494 Rocket 4.3 01:13:22 36° WSW 01:15:13 55° WNW 01:20:16 10° NNE
Cosmos 1470 Rocket 3.7 01:17:46 52° SW 01:18:32 63° WNW 01:22:51 10° N
Cosmos 1743 4.4 01:19:32 22° ESE 01:20:31 25° E 01:23:41 10° NE
Cosmos 1302 Rocket 3.9 01:16:04 10° NNW 01:21:17 81° WSW 01:23:07 41° SSE
Cosmos 1340 Rocket 2.6 01:20:53 66° SSE 01:21:21 77° E 01:25:16 10° NNE
COSMOS 2455 3.4 01:18:15 24° WSW 01:21:46 54° NW 01:27:41 10° NNE
NOSS 2-2 (E) 4.5 01:16:35 10° NW 01:21:52 81° NE 01:29:21 10° SE
CZ-3B R/B 4.0 01:20:22 10° WNW 01:22:22 16° W 01:22:22 16° W
NOSS 0 Rocket 4.0 01:18:25 10° NW 01:24:32 58° WSW 01:26:47 37° S
Cosmos 1933 Rocket 3.5 01:24:35 54° SSW 01:25:35 81° W 01:30:04 10° N
APEX 4.2 01:23:33 41° SSW 01:25:37 88° ESE 01:32:08 10° NNE
Cosmos 1709 Rocket 4.0 01:23:31 36° S 01:26:18 83° E 01:32:41 10° N
Cosmos 1633 Rocket 4.2 01:26:59 27° W 01:28:05 31° WNW 01:31:59 10° N
Helios 1A 2.9 01:27:31 50° SSE 01:28:36 86° ENE 01:32:50 10° NNW
Okean 3 3.9 01:24:23 10° N 01:28:38 57° ENE 01:30:10 36° SE
Okean 1-7 2.9 01:25:19 10° NNW 01:29:35 82° W 01:30:27 56° S
Cosmos 2219 3.6 01:28:52 35° SSE 01:31:00 54° ESE 01:36:36 10° NE
Cosmos 1066 Rocket 4.3 01:27:07 10° N 01:33:00 79° ENE 01:36:06 30° SSE
Cosmos 1745 Rocket 4.3 01:31:32 33° SW 01:34:12 55° WNW 01:40:22 10° N
YAOGAN 11 4.1 01:34:27 48° S 01:35:39 71° WSW 01:40:13 10° NNW
UNK 4.2 01:41:38 24° SE 01:44:18 60° ENE 01:48:56 10° N
NOSS 2-2 (C) 4.3 01:39:34 10° NW 01:44:49 88° SW 01:52:12 10° SE
Cosmos 2333 Rocket 4.0 01:42:05 10° WNW 01:45:16 15° W 01:45:40 15° WSW
ATLAS 5 CENTAUR R/B 2.6 01:42:07 10° NW 01:47:31 48° WSW 01:50:05 31° S
Cosmos 1666 3.8 01:47:03 29° W 01:47:41 31° WNW 01:51:10 10° N
Helios 1B rocket 3.7 01:44:28 10° NNE 01:48:12 32° E 01:49:49 24° SE
Cosmos 1378 3.4 01:45:28 10° NNW 01:49:02 48° W 01:49:14 47° WSW
SL-16 R/B 2.6 01:44:51 21° SSE 01:49:10 79° ENE 01:55:22 10° NNW
Meteor 1-11 Rocket 3.6 01:49:09 36° SSW 01:51:34 87° W 01:57:08 10° NNE
MOZ.5/SAFIR/RUBIN 5/SL-8 3.9 01:51:18 40° SSW 01:52:44 58° W 01:57:25 10° NNW
Cosmos 1980 4.0 01:49:50 10° NW 01:55:13 46° WSW 01:57:05 34° SSW
Cosmos 2251 Rocket 4.4 01:54:37 24° SSE 01:57:13 40° ESE 02:02:08 10° NE
Resurs 1-4 Rocket 2.2 01:52:19 10° NNE 01:57:39 71° ESE 02:00:13 31° S
Cosmos 2084 Rocket 3.4 01:57:31 10° NW 02:01:42 62° SW 02:03:25 34° SSE
Lacrosse 5 2.2 02:00:23 35° S 02:02:03 49° SE 02:06:57 10° ENE
Cosmos 1703 Rocket 4.3 01:59:08 10° NNW 02:03:07 36° W 02:03:57 33° WSW
Cosmos 1536 3.2 02:11:14 38° SW 02:12:20 51° WNW 02:16:17 10° N
USA 267 4.5 02:06:21 10° ENE 02:12:25 43° N 02:18:31 10° WNW
ADEOS Rocket 2.7 02:08:20 19° SSE 02:12:32 86° ENE 02:18:03 10° NNW
Cosmos 2074 Rocket 4.1 02:09:07 24° S 02:13:04 74° E 02:19:17 10° NNE
Cosmos 2297 Rocket 2.4 02:13:28 28° SW 02:16:30 63° WNW 02:22:09 10° NNE
NPP 3.7 02:11:10 10° NNE 02:16:37 81° ESE 02:19:38 27° S
Cosmos 2237 Rocket 3.0 02:14:22 10° NW 02:19:22 33° WSW 02:21:03 27° SW
Intercosmos 25 Rocket 4.4 02:19:12 26° W 02:20:17 31° WNW 02:24:20 10° N
AQUA 3.9 02:17:44 10° NNE 02:22:32 76° ESE 02:25:08 27° S
Cosmos 1733 Rocket 3.4 02:22:03 25° S 02:24:31 64° E 02:28:57 10° NNE
Cosmos 2181 Rocket 4.3 02:19:19 10° NNW 02:25:27 50° W 02:28:55 25° SSW
Cosmos 1544 4.1 02:26:15 28° WSW 02:27:09 33° WNW 02:30:28 10° N
Cosmos 2227 Rocket 2.3 02:24:05 27° SW 02:27:15 68° WNW 02:32:55 10° NNE
ASTEX 1 4.4 02:31:12 25° WSW 02:32:57 31° W 02:37:18 10° NNW
CZ-2D R/B 2.3 02:29:56 10° N 02:35:14 61° WNW 02:38:25 24° SW
ADEOS II 2.2 02:33:01 10° NNE 02:38:19 76° ESE 02:41:58 20° S
Okean 2 3.9 02:36:47 10° N 02:40:55 61° ENE 02:44:58 10° SSE
Meteor 2-9 Rocket 4.2 02:37:34 19° S 02:41:22 73° E 02:46:43 10° NNE
Cosmos 192 4.3 02:38:08 10° NNW 02:43:00 63° WSW 02:47:02 15° S
Cosmos 909 Rocket 4.5 02:38:30 21° SW 02:43:10 72° NW 02:51:04 10° NE
SL-16 R/B 2.3 02:37:48 10° NW 02:43:20 57° WSW 02:48:30 12° S
IRS-1D 3.8 02:38:34 10° NNE 02:43:30 63° ESE 02:47:18 17° S
CZ-4C R/B 3.1 02:37:11 10° NW 02:44:17 78° NE 02:52:38 10° SE
SL-19 R/B 4.5 02:42:05 10° NNE 02:48:08 84° WNW 02:52:49 19° SSW
Iridium 4 Rocket 3.7 02:45:46 10° N 02:51:13 88° W 02:56:32 12° S
Cosmos 614 Rocket 4.0 02:50:33 22° SSW 02:53:57 82° WNW 02:59:13 10° NNE
Cosmos 2263 Rocket 3.1 02:49:22 13° S 02:54:05 43° ESE 02:59:27 10° NE
Cosmos 1743 4.0 02:54:35 21° WSW 02:56:11 28° WNW 02:59:32 10° NNW
Meteor 1-28 Rocket 3.1 02:56:41 18° S 02:59:19 65° W 03:03:02 10° NNW
Cosmos 407 Rocket 3.8 03:00:28 15° S 03:04:50 64° ESE 03:10:04 10° NNE
Nadezhda 3 Rocket 4.1 02:59:58 10° NNW 03:06:17 64° W 03:12:31 10° S
Cosmos 2221 Rocket 4.4 03:02:16 10° NNW 03:06:25 36° W 03:09:07 19° SSW
In-Cosmos 22 4.4 03:01:34 10° N 03:07:23 77° ENE 03:13:08 10° SSE
GEOS 3 Rocket 3.9 03:05:04 10° SE 03:10:24 77° NE 03:15:44 10° NW
ATLAS CENTAUR R/B 3.1 03:09:23 10° SSE 03:12:22 22° ESE 03:15:28 10° ENE
Cosmos 1975 3.0 03:10:02 19° SSW 03:12:50 60° WNW 03:16:54 10° N
Landsat 4 3.7 03:11:03 10° N 03:14:44 68° WNW 03:17:25 18° SSW
Cosmos 2219 4.4 03:10:47 12° WSW 03:15:27 32° NW 03:20:36 10° NNE
Cosmos 1461 3.3 03:16:06 16° SSW 03:19:41 66° SE 03:24:06 10° NE
USA 215 4.4 03:14:01 10° ENE 03:19:44 32° SE 03:25:27 10° S
Spot 1 4.0 03:16:08 10° SSE 03:20:18 83° ENE 03:24:24 10° NNW
Cosmos 1707 2.7 03:16:58 10° NNW 03:20:48 65° W 03:24:34 10° S
Cosmos 1943 3.3 03:17:26 10° NNW 03:23:11 82° ENE 03:28:53 10° SSE
Helios 1B rocket 3.8 03:19:52 10° N 03:23:20 27° WNW 03:26:06 14° WSW
Cosmos 1674 Rocket 4.1 03:19:40 10° NNW 03:23:49 40° W 03:27:29 13° SSW
Cosmos 1238 Rocket 2.7 03:22:22 18° SSW 03:24:22 48° WNW 03:27:44 10° N
SL-08 R/B 3.8 03:20:52 10° SSE 03:25:45 67° ENE 03:30:42 10° N
IRS-P3 4.4 03:20:59 10° NNE 03:26:20 68° ESE 03:31:38 10° S
Meteor 1-29 3.8 03:24:50 10° N 03:27:53 34° WNW 03:30:06 16° SW
IDEFIX/ARIANE 42P 2.6 03:23:53 10° N 03:29:03 71° WNW 03:34:01 11° SSW
CBERS-1 4.1 03:25:21 10° N 03:30:28 67° WNW 03:35:19 11° SSW
BREEZE-M R/B 4.2 03:26:55 10° WNW 03:31:37 75° SSW 03:51:35 10° ESE
SL-24 R/B - RUBIN 2 4.2 03:26:32 10° NW 03:31:43 69° NE 03:36:18 10° SE
SL-16 R/B 3.9 03:29:57 13° SW 03:33:28 20° W 03:37:51 10° NW
Cosmos 2082 4.5 03:30:45 12° WSW 03:35:41 42° NW 03:41:09 10° NNE
Resurs 1-4 Rocket 3.8 03:33:05 10° N 03:36:57 21° WNW 03:40:48 10° WSW
CZ-2C R/B 3.6 03:33:48 10° NNE 03:38:02 37° E 03:42:18 10° SSE
Cosmos 1975 Rocket 3.2 03:37:35 10° N 03:42:02 83° E 03:46:24 10° S
Lacrosse 5 2.6 03:40:09 10° W 03:45:05 50° NNW 03:50:02 10° NE
Cosmos 2344 3.6 03:44:52 10° SW 03:52:20 89° SE 04:00:21 10° NE
Cosmos 1340 2.6 03:50:35 10° NNW 03:54:19 63° W 03:58:00 10° S
MSX 4.0 03:48:46 10° N 03:54:26 63° WNW 04:00:04 10° SSW
BREEZE-M DEB (TANK) 3.5 03:45:47 10° WSW 03:54:39 65° SSE 03:57:35 10° E
USA 267 3.9 03:48:26 10° ESE 03:54:52 63° NNE 04:01:19 10° NW
Cosmos 1908 Rocket 4.1 03:51:00 10° SW 03:55:06 41° WNW 03:59:14 10° N
USA 290 3.2 03:52:40 10° NNW 03:55:51 53° ENE 03:59:02 10° SE
Cosmos 1190 Rocket 4.1 03:51:00 10° SSW 03:56:16 68° WNW 04:01:35 10° NNE
BREEZE-M DEB (TANK) 2.9 03:55:41 10° SW 03:58:07 44° SSE 04:00:29 10° E
ADEOS Rocket 4.5 03:55:48 10° WSW 03:58:51 15° W 04:01:52 10° NW
Cosmos 1626 2.1 03:55:30 10° N 03:59:13 88° E 04:02:54 10° S
Cosmos 1400 Rocket 3.1 03:55:38 10° S 03:59:28 66° E 04:03:22 10° NNE
Cosmos 1356 Rocket 4.4 03:56:30 10° SW 04:00:05 31° WNW 04:03:41 10° N
Cosmos 1140 Rocket 3.9 03:55:08 10° SW 04:00:15 52° WNW 04:05:24 10° NNE
Cosmos 2297 Rocket 4.3 03:58:13 10° WNW 04:01:45 16° NW 04:05:16 10° N
Cosmos 468 Rocket 4.3 03:57:09 10° NNW 04:02:29 77° ENE 04:07:45 10° SSE
CZ-4B R/B 3.4 03:59:20 10° NNE 04:04:16 83° WNW 04:09:03 10° SSW
SL-8 R/B 4.0 03:59:42 10° WSW 04:04:24 59° SSE 04:09:09 10° E
Cosmos 1674 3.0 04:00:44 10° NNW 04:04:26 47° W 04:08:07 10° SSW
NOSS 3-4 (A) 4.2 03:59:33 10° NW 04:06:27 76° NE 04:14:11 10° SE
NOSS 3-4 (C) 4.2 03:59:39 10° NW 04:06:33 76° NE 04:14:17 10° SE
ARIANE 5 R/B 2.6 04:02:34 10° N 04:07:42 68° WNW 04:12:51 10° SSW
Cosmos 1844 Rocket 4.1 04:02:45 10° S 04:07:52 36° ESE 04:13:01 10° NE
Cosmos 1603 4.0 04:05:01 10° NW 04:10:20 45° WSW 04:15:40 10° S
Cosmos 1954 Rocket 4.1 04:05:11 10° SSW 04:10:30 80° WNW 04:15:52 10° NNE
FENGYUN 3A 4.4 04:05:43 10° NNE 04:11:05 57° E 04:16:24 10° S
Cosmos 44 4.0 04:07:34 10° NW 04:12:21 36° WSW 04:16:52 10° S
